User: anonymous   Login
Location: Unspecified
(0.0000°N, 0.0000°E)
Time: 03:42:50
(UTC+00:00)
Language:

Oscar 11 - Orbit

View from above orbital plane
View from above orbital plane
View from above satellite
View from above satellite

Ground track
Ground track

The orbit data is extracted from the following two-line orbital elements,

1 14781U 84021B   19083.87998305  .00000022  00000-0  87836-5 0  9997
2 14781  97.6200 112.6164 0007222 235.5606 124.4926 14.83071231886042
Epoch (UTC): 24 March 2019 21:07:10
Eccentricity: 0.0007222
inclination: 97.6200°
perigee height: 614 km
apogee height: 625 km
right ascension of ascending node: 112.6164°
argument of perigee: 235.5606°
revolutions per day: 14.83071231
mean anomaly at epoch: 124.4926°
orbit number at epoch: 88604

The dashed part of the orbit path shows where the satellite is in the earth's shadow,  

DLR